Domov               UVHVVR             MKGP            O straneh              
ZDRAVSTVENO VARSTVO RASTLIN
  MREŽA AGROMET. POSTAJ
 ► PROGNOSTIČNA OBVESTILA
AGROMETEOROLOŠKI PODATKI -
ARSO
OBVLADOVANJE TVEGANJ ZARADI
NEUGODNIH VREMENSKIH RAZMER
  ► NARAVNE NESREČE
  ► SUŠA/MOČA
  ► NAMAKANJE
  ► ŽLED (gozdarstvo)
KARTOGRAFSKI PRIKAZI
SPLETNE POVEZAVE
PROJEKTI IN PUBLIKACIJE

AGROMETEOROLOŠKA MREŽA: VREMENSKE POSTAJE IN FENOLOŠKA OPAZOVANJA

Pregled podatkov za lokacijo Latkova vas, meteorološka postaja 48453

Pregled senzorjev na lokaciji

ID Ime Zadnja
vrednost
Datum
zadnje
spremembe
Tip
senzorja
3629 Hitrost vetra (km/h) 0,05 km/h 20.1.2018 11:30 566.2S-176 (200km/h)
3630 Smer vetra (°) 283,66 ° 20.1.2018 11:30 566.2S-130
3632 Sončno sevanje (W/m2) 203,77 W/m2 20.1.2018 11:30 Pyranometer SP-Lite
3633 Temperatura 2 m (°C) 3,44 °C 20.1.2018 11:30 50YA
3635 Omočenost lista (U) 0 U 20.1.2018 11:30 A730WET
3636 Temperatura tal 5 cm (°C) 3,35 °C 20.1.2018 11:30 99TG411E
4025 Relativna vlaga 2 m (% RH) 77,21 % RH 20.1.2018 11:30 50YA
4252 Padavine (mm) 0 mm 20.1.2018 11:30 Rain-O-Matic

Pregled podatkov zadnjih 24 ur

Zap.
št.
Datum in čas Latkova vas
Hitrost
vetra
Omočenost
lista
Padavine Relativna
vlaga
2
m
Smer
vetra
Sončno
sevanje
Temperatura
2
m
Temperatura
tal
5
cm
0 20.1.2018 11:30 0,05 0 0 77,21 283,66 203,77 3,44 3,35
1 20.1.2018 11:00 0,05 0 0 79,59 289,05 208,35 3,33 3,39
2 20.1.2018 10:30 0,05 0 0 83,31 252 220,61 2,71 3,4
3 20.1.2018 10:00 0,05 0 0 86,59 268,44 265,75 2,08 3,34
4 20.1.2018 09:30 0,05 0 0 92,16 235,41 165,19 1,13 3,33
5 20.1.2018 09:00 0,05 7 0 94,76 242,41 133,73 0,5 3,3
6 20.1.2018 08:30 0,05 9 0 95,49 228,39 53,07 -0,05 3,22
7 20.1.2018 08:00 0,05 9 0 95,47 232,21 15,38 -0,1 3,22
8 20.1.2018 07:30 0,05 8 0 96,11 292,38 1,22 0,02 3,22
9 20.1.2018 07:00 0,05 9 0 96,48 222,83 0,55 0,42 3,28
10 20.1.2018 06:30 0,05 10 0 97,23 312,12 0,55 0,81 3,31
11 20.1.2018 06:00 0,05 10 0 97,37 346,63 0,55 0,96 3,35
12 20.1.2018 05:30 0,04 10 0 97,43 280,11 0,58 0,94 3,36
13 20.1.2018 05:00 0,05 10 0 97,45 247,09 0,61 0,62 3,36
14 20.1.2018 04:30 0,05 10 0 97,56 284,46 0,55 0,96 3,4
15 20.1.2018 04:00 0,05 10 0 97,62 293,06 0,58 0,94 3,41
16 20.1.2018 03:30 0,04 10 0 97,59 208,45 0,55 1,08 3,44
17 20.1.2018 03:00 0,04 10 0 97,54 318,82 0,52 1,03 3,47
18 20.1.2018 02:30 0,05 10 0 97,53 276,49 0,58 1,08 3,47
19 20.1.2018 02:00 0,04 10 0 97,38 210,42 0,58 1,08 3,5
20 20.1.2018 01:30 0,05 10 0 97,47 322,87 0,55 1,41 3,53
21 20.1.2018 01:00 0,04 10 0 97,42 337,26 1,23 3,54
22 20.1.2018 00:30 0,05 10 0 97,23 204,78 1,08 3,55
23 20.1.2018 00:00 0,05 10 0 97,2 172,58 1,14 3,6
24 19.1.2018 23:30 0,04 10 0 97,09 212,64 1,35 3,61
25 19.1.2018 23:00 0,05 10 0 97,06 342,97 1,26 3,63
26 19.1.2018 22:30 0,05 10 0 96,85 352,42 1,05 3,62
27 19.1.2018 22:00 0,05 10 0 96,57 221,52 1,21 3,64
28 19.1.2018 21:30 0,04 10 0 96,37 191,34 1,3 3,67
29 19.1.2018 21:00 0,04 10 0 96,07 217,44 1,61 3,7
30 19.1.2018 20:30 0,05 10 0 96,06 278,86 1,79 3,73
31 19.1.2018 20:00 0,04 10 0 95,88 267,47 1,83 3,76
32 19.1.2018 19:30 0,05 10 0 95,63 312,31 1,93 3,75
33 19.1.2018 19:00 0,04 10 0 95,1 131,09 1,92 3,78
34 19.1.2018 18:30 0,05 10 0 94,71 248,2 2,17 3,78
35 19.1.2018 18:00 0,05 9 0 94,53 221,75 2,28 3,8
36 19.1.2018 17:30 0,05 8 0 94,5 233,16 2,47 3,82
37 19.1.2018 17:00 0,05 7 0 94,34 247,27 2,54 3,81
38 19.1.2018 16:30 0,05 6 0 94,14 228,5 3,36 2,64 3,81
39 19.1.2018 16:00 0,04 4 0 93,6 227,27 9,46 2,91 3,81
40 19.1.2018 15:30 0,05 5 0 92,24 285,85 17,76 3,11 3,8
41 19.1.2018 15:00 0,05 4 0 91,64 74,01 20,48 3,32 3,79
42 19.1.2018 14:30 1,11 3 0 92,06 151,42 24,84 3,35 3,78
43 19.1.2018 14:00 7,98 3 0 90,46 110,44 22,13 3,6 3,75
44 19.1.2018 13:30 5,64 6 0 86,1 80,8 13,09 4,18 3,7
45 19.1.2018 13:00 0,32 8 0,6 87,38 0,5 11,78 4,63 3,69
46 19.1.2018 12:30 0,05 5 0 85,89 231,33 20,63 5,05 3,67
© 2011 Ministrstvo za kmetijstvo, gozdarstvo in prehrano. Vse pravice pridržane.